Location: Davidschlag
(48.4333°N, 14.2833°E)
Time: 11:30:09
(UTC+00:00)

GP-B - Pass Details

Date: 27 February 2020
Orbit: 631 x 636 km, 89.8° (Epoch: 08 April)

Event Time Altitude Azimuth Distance (km) Brightness Sun altitude
Exits shadow 19:01:31 34° 23° (NNE) 1,046 4.1 -23.6°
Drops below altitude 10° 19:04:14 10° 6° (N) 2,035 5.8 -24.1°
Sets 19:06:29 0° 3° (N) 2,949 6.7 -24.4°
